USA 157 (MILSTAR-2 2)

Last updated on Thu Oct 30 2025 00:02:47 GMT+0000 (Coordinated Universal Time)

1 26715U 01009A 25302.42115529 .00000122 00000+0 00000+0 0 9995 2 26715 11.2873 21.1355 0043721 183.2210 195.2001 1.00272344 30639
UTC large
Height (km)
Speed (km/s)
/
Latitude / Longitude
Inclination (degrees)
Orbital Period (minutes)
Azimuth
Elevation
Range (km)
Doppler Factor

Next 0 passes for location: London (51.5072 / 0.1276)

Sorry there are no passes over London.